Location: La Bastide
(43.1661°N, 1.2755°E)
Time: 17:34:03
(UTC+00:00)

ISS - Pass Details

Date: 21 February 2026
Orbit: 416 x 427 km, 51.6° (Epoch: 6 March)

Event Time Altitude Azimuth Distance (km) Brightness Sun altitude
Exits shadow 04:46:01 23° 10° (N) 941 -1.9 -22.2°
Drops below altitude 10° 04:48:01 10° 43° (NE) 1,496 -0.3 -21.8°
Sets 04:50:20 0° 56° (ENE) 2,359 1.1 -21.4°
